User: anonymous   Login
Location: Melbourne
(37.8170°S, 144.9670°E)
Time: 10:43:57
(UTC+11:00)
Language:

ISS - Orbit

View from above orbital plane
View from above orbital plane
View from above satellite
View from above satellite

Ground track
Ground track

The orbit data is extracted from the following two-line orbital elements,

1 25544U 98067A   14304.81320176  .00020002  00000-0  34717-3 0  3320
2 25544 051.6445 142.3146 0003577 350.8908 099.3169 15.50834417912527
Epoch (UTC): 31 October 2014 19:31:00
Eccentricity: 0.0003577
inclination: 51.6445°
perigee height: 412 km
apogee height: 417 km
right ascension of ascending node: 142.3146°
argument of perigee: 350.8908°
revolutions per day: 15.50834417
mean anomaly at epoch: 99.3169°
orbit number at epoch: 91252

The dashed part of the orbit path shows where the satellite is in the earth's shadow,  

DLR